OneWeb SL0189

operational
NORAD ID: 48217 Int'l Des: 2021-031 Owner: ONEWEBN Country: UK Constellation: oneweb
LEOCIRCULARPOLARONEWEB_TYPE

OneWeb SL0189について

説明を読み込み中...

リアルタイム位置

3D地球を読み込み中...

次回通過

高度履歴

Altitude vs Time

uPlot chart will show altitude changes over time

軌道要素

1 48217U 21031H 25304.12470394 -.00000403 00000-0 -11210-2 0 9999
2 48217 87.9013 335.3291 0002266 91.2431 268.8959 13.14502349218138
Epoch: Oct 31, 2025 • Age: 11 hours

現在のステータス

高度 1224.8 km
速度 7.24 km/s
衛星直下点 -46.02°S, 87.15°E
打ち上げ日 Apr 25, 2021
運用期間 4.5 years
タイプ internet

技術仕様

分類 Payload
質量 148.00 kg
乾燥質量 140.00 kg
総質量 148.00 kg
長さ 1.30 m
直径 1.00 m
スパン 5.00 m
形状 Trapezoid+2 pan
製造者 ONEWUS
バスタイプ ARROW
フェーズステータス In Orbit
所有者/国 ONEWEBN/UK

大規模コンステレーション

Loading constellations...